Onweer van: 25-07-2021 11:00 tot: 20:00 waarschuwing voor: Onweer niveau: Geel info button


waarschuwing voor Onweer Meer informatie blitzortung!


Regen radar Meer informatie rain snow radar


Bezoek onze andere website:

Template documentation
and downloads

And another site



15 daagse weersverwachting Göteborg (SE)

  • Overzicht
  • Per uur
  • 15 dagen
  • Extra
  • Vergelijk
  • Kaarten
  • Dagkaart
  • Meer »
  • Info
  • Statistieken
  • Directe link
    Temp 6h Neerslag Wind  
 04:57     21:42    Daglengte: 16:45 Vandaag
08:00
19°
 
3
14:00
26°
 
4
20:00
26°
 
3
 04:59     21:40    Daglengte: 16:41 Morgen
02:00
20°
 
4
08:00
20°
 
4
14:00
28°
0.7 mm
3
warningclass
20:00
24°
1.2 mm
3
warningclass
 05:00     21:38    Daglengte: 16:38 Dinsdag 27 Jul
02:00
20°
3.5 mm
2
warningclass
08:00
20°
12.2 mm
4
warningclass
14:00
21°
22.7 mm
5
20:00
20°
2.0 mm
4
 05:02     21:36    Daglengte: 16:34 Woensdag 28 Jul
02:00
18°
12.1 mm
2
Locatie info
Region: Västra Götalands län
Latitude: 57.7007°N
Longitude: 11.9682°E
10 masl
Postcode: 411 36
Temp/Neerslag /Baro Onweer/Dauwpunt
    Temp Baro 1h Neerslag Dauwpunt Wind UV Bewolking  
 04:57     21:42    Daglengte: 16:45 Vandaag
06:00
17°
1015.3 hPa
14%
15.6°
3
Windvlaag: 2.7 m/s
13%
07:00
18°
1015.3 hPa   14.2°
3
Windvlaag: 3.2 m/s
27%
08:00
19°
1015.3 hPa   13.2°
3
Windvlaag: 3.7 m/s
46%
09:00
20°
1015.2 hPa   11.8°
4
Windvlaag: 3.9 m/s
48%
10:00
22°
1015.2 hPa   11.7°
4
Windvlaag: 3.9 m/s
53%
11:00
23°
1015.2 hPa   12.0°
5
Windvlaag: 4.1 m/s
58%
12:00
24°
1015.0 hPa   11.8°
4
Windvlaag: 3.9 m/s
46%
13:00
25°
1014.9 hPa   11.7°
4
Windvlaag: 4 m/s
66%
14:00
26°
1014.7 hPa   11.3°
4
Windvlaag: 4 m/s
70%
15:00
27°
Voelt als: 26.6°
1014.5 hPa   10.7°
3
Windvlaag: 4.3 m/s
69%
16:00
27°
Voelt als: 26.6°
1014.3 hPa   10.4°
3
Windvlaag: 4.2 m/s
76%
17:00
27°
Voelt als: 26.6°
1014.0 hPa   10.4°
3
Windvlaag: 4.1 m/s
74%
18:00
27°
Voelt als: 26.4°
1013.7 hPa   9.9°
3
Windvlaag: 3.9 m/s
67%
19:00
26°
Voelt als: 26.2°
1013.6 hPa   9.8°
3
Windvlaag: 3.4 m/s
56%
20:00
26°
1013.5 hPa   10.1°
3
Windvlaag: 3.9 m/s
47%
21:00
25°
1013.9 hPa   11.7°
2
Windvlaag: 3.9 m/s
23%
22:00
23°
1014.3 hPa   13.2°
2
Windvlaag: 4 m/s
25%
23:00
21°
1014.6 hPa   14.0°
3
Windvlaag: 3.7 m/s
34%
 04:59     21:40    Daglengte: 16:41 Morgen
00:00
21°
1014.8 hPa   14.1°
3
Windvlaag: 3.6 m/s
64%
01:00
21°
1014.8 hPa   14.7°
4
Windvlaag: 3.2 m/s
43%
02:00
20°
1014.5 hPa   15.0°
4
Windvlaag: 2.9 m/s
33%
03:00
19°
1014.5 hPa   15.2°
4
Windvlaag: 3.1 m/s
14%
04:00
19°
1014.3 hPa   15.2°
4
Windvlaag: 3.5 m/s
26%
05:00
18°
1014.0 hPa   14.1°
4
Windvlaag: 2.9 m/s
40%
06:00
18°
1013.8 hPa
11%
13.3°
4
Windvlaag: 3.1 m/s
39%
07:00
19°
1013.7 hPa
12%
13.1°
4
Windvlaag: 3 m/s
28%
08:00
20°
1013.6 hPa
14%
14.7°
4
Windvlaag: 2.6 m/s
35%
09:00
21°
1013.6 hPa
14%
17.6°
4
Windvlaag: 3.2 m/s
63%
10:00
23°
1013.4 hPa
14%
19.3°
4
Windvlaag: 2.7 m/s
79%
11:00
24°
1013.3 hPa
14%
19.6°
4
Windvlaag: 2.9 m/s
82%
12:00
26°
1013.0 hPa
15%
16.5°
4
Windvlaag: 3.2 m/s
80%
13:00
28°
1012.5 hPa
62%
15.2°
4
Windvlaag: 4.7 m/s
82%
14:00
28°
Voelt als: 27.9°
1012.0 hPa 0.7 mm
80%
14.7°
3
Windvlaag: 5.1 m/s
85% warningclass
15:00
26°
1011.7 hPa
38%
18.3°
3
Windvlaag: 5.3 m/s
85%
16:00
25°
1011.8 hPa 1.2 mm
82%
19.3°
3
Windvlaag: 5.7 m/s
84%
17:00
25°
1011.4 hPa
74%
18.4°
4
Windvlaag: 4.7 m/s
86%
18:00
24°
1011.3 hPa
78%
19.0°
4
Windvlaag: 4.7 m/s
77%
19:00
24°
1011.0 hPa
82%
19.0°
3
Windvlaag: 4.6 m/s
66%
20:00
24°
1010.5 hPa
81%
18.8°
3
Windvlaag: 3.7 m/s
84%
21:00
23°
1010.4 hPa
66%
18.1°
3
Windvlaag: 0.2 m/s
80%
22:00
22°
1010.3 hPa
24%
16.0°
3
Windvlaag: -0.1 m/s
82%
23:00
22°
1010.1 hPa
34%
20.9°
2
Windvlaag: 0.1 m/s
97%
 05:00     21:38    Daglengte: 16:38 Dinsdag 27 Jul
00:00
21°
1010.1 hPa 1.9 mm
44%
20.6°
2
Windvlaag: -0.2 m/s
95% warningclass
01:00
21°
1009.8 hPa
84%
20.4°
2
Windvlaag: 0 m/s
96%
02:00
20°
1009.7 hPa 1.6 mm
93%
20.1°
2
Windvlaag: -0.5 m/s
93% warningclass
03:00
20°
1009.7 hPa 2.3 mm
100%
19.6°
2
Windvlaag: 0.3 m/s
92% warningclass
04:00
19°
1009.4 hPa 2.2 mm
100%
19.2°
3
Windvlaag: 1.5 m/s
98% warningclass
05:00
19°
1009.0 hPa 2.4 mm
100%
18.8°
3
Windvlaag: 0.4 m/s
99% warningclass
06:00
19°
1008.6 hPa 1.8 mm
100%
18.3°
3
Windvlaag: 0.5 m/s
100% warningclass
07:00
20°
1008.3 hPa 1.7 mm
100%
18.5°
4
Windvlaag: 1.7 m/s
100% warningclass
08:00
20°
1008.1 hPa 1.9 mm
100%
18.3°
4
Windvlaag: 3.6 m/s
99% warningclass
09:00
20°
1007.3 hPa 2.5 mm
100%
16.4°
3
Windvlaag: 6.5 m/s
99% warningclass
10:00
20°
1007.0 hPa 3.8 mm
100%
16.5°
2
Windvlaag: 7.6 m/s
100% warningclass
11:00
20°
1006.7 hPa 9.4 mm
100%
16.8°
2
Windvlaag: 8.3 m/s
100% warningclass
12:00
20°
1006.8 hPa 3.0 mm
100%
16.5°
4
Windvlaag: 9.4 m/s
100%
13:00
21°
1006.9 hPa 2.1 mm
100%
15.9°
4
Windvlaag: 9.6 m/s
97%
14:00
21°
1007.1 hPa 2.0 mm
100%
15.8°
5
Windvlaag: 9.9 m/s
94%
15:00
21°
1007.3 hPa 2.0 mm
100%
15.6°
5
Windvlaag: 8 m/s
48%
16:00
22°
1007.3 hPa
96%
15.1°
5
Windvlaag: 7 m/s
59%
17:00
21°
1007.4 hPa
40%
14.8°
5
Windvlaag: 7.3 m/s
43%
18:00
21°
1007.4 hPa
84%
14.7°
5
Windvlaag: 7.9 m/s
56%
19:00
21°
1007.2 hPa
80%
15.5°
4
Windvlaag: 7.2 m/s
38%
20:00
20°
1007.2 hPa
34%
16.3°
4
Windvlaag: 6.7 m/s
43%
21:00
19°
1007.8 hPa
89%
15.9°
4
Windvlaag: 5.6 m/s
17%
22:00
19°
1008.1 hPa 2.0 mm
90%
16.7°
3
Windvlaag: 5.9 m/s
63%
23:00
19°
1008.4 hPa 2.1 mm
97%
17.2°
3
Windvlaag: 5.6 m/s
56%
 05:02     21:36    Daglengte: 16:34 Woensdag 28 Jul
00:00
18°
1008.6 hPa 2.1 mm
100%
17.5°
3
Windvlaag: 5.7 m/s
54%
01:00
18°
1008.8 hPa 2.1 mm
100%
17.6°
3
Windvlaag: 5.4 m/s
43%
02:00
18°
1008.7 hPa
91%
17.8°
2
Windvlaag: 4.5 m/s
51%
Temp/Neerslag /Baro Onweer/Dauwpunt
    Temp Baro Neerslag Dauwpunt Wind Bewolking  
 04:57     21:42    Daglengte: 16:45 Vandaag
08:00
19°
1015.3 hPa   13.2°
3
46%
11:00
23°
1015.2 hPa   12.0°
5
58%
14:00
26°
1014.7 hPa   11.3°
4
70%
17:00
27°
Voelt als: 26.6°
1014.0 hPa   10.4°
3
74%
20:00
26°
1013.5 hPa   10.1°
3
47%
23:00
21°
1014.6 hPa   14.0°
3
34%
 04:59     21:40    Daglengte: 16:41 Morgen
02:00
20°
1014.5 hPa   15.0°
4
33%
05:00
18°
1014.0 hPa   14.1°
4
40%
08:00
20°
1013.6 hPa   14.7°
4
35%
11:00
24°
1013.3 hPa   19.6°
4
82%
14:00
28°
Voelt als: 27.9°
1012.0 hPa 0.7 mm 14.7°
3
85% warningclass
17:00
25°
1011.4 hPa 1.2 mm 18.4°
4
86%
20:00
24°
1010.5 hPa   18.8°
3
84%
23:00
22°
1010.1 hPa   20.9°
2
97%
 05:00     21:38    Daglengte: 16:38 Dinsdag 27 Jul
02:00
20°
1009.7 hPa 3.5 mm 20.1°
2
93% warningclass
05:00
19°
1009.0 hPa 6.8 mm 18.8°
3
99% warningclass
08:00
20°
1008.1 hPa 5.4 mm 18.3°
4
99% warningclass
11:00
20°
1006.7 hPa 15.6 mm 16.8°
2
100% warningclass
14:00
21°
1007.1 hPa 7.1 mm 15.8°
5
94%
17:00
21°
1007.4 hPa 2.0 mm 14.8°
5
43%
20:00
20°
1007.2 hPa   16.3°
4
43%
23:00
19°
1008.4 hPa 4.1 mm 17.2°
3
56%
 05:02     21:36    Daglengte: 16:34 Woensdag 28 Jul
02:00
18°
1008.7 hPa 6.1 mm 17.8°
2
51%
05:00
16°
1007.9 hPa 15.1 mm 15.7°
1
0%
08:00
19°
1007.8 hPa 15.1 mm 15.8°
2
1%
11:00
21°
1007.1 hPa 15.1 mm 13.8°
3
1%
14:00
20°
1006.6 hPa 15.4 mm 14.6°
3
1%
17:00
21°
1006.0 hPa 16.6 mm 15.3°
5
1%
20:00
18°
1005.8 hPa 17.9 mm 16.3°
4
0%
23:00
16°
1005.9 hPa 18.8 mm 15.5°
4
0%
 05:04     21:34    Daglengte: 16:30 Donderdag 29 Jul
02:00
16°
1006.2 hPa 19.0 mm 14.5°
6
0%
05:00
16°
1006.4 hPa 19.2 mm 12.8°
6
1%
08:00
17°
1006.8 hPa 19.2 mm 12.1°
6
1%
11:00
19°
1007.2 hPa 19.2 mm 11.3°
6
0%
14:00
20°
1006.5 hPa 19.3 mm 11.4°
5
0%
17:00
21°
1005.4 hPa 19.9 mm 11.9°
6
0%
20:00
19°
1004.0 hPa 20.1 mm 13.2°
4
1%
23:00
18°
1003.0 hPa 20.4 mm 12.3°
5
0%
 05:06     21:32    Daglengte: 16:26 Vrijdag 30 Jul
02:00
16°
1000.9 hPa 23.2 mm 14.7°
5
1%
05:00
16°
999.4 hPa 26.8 mm 13.7°
8
1%
08:00
16°
1000.2 hPa 27.0 mm 10.9°
9
1%
11:00
17°
1000.0 hPa 27.8 mm 11.2°
9
0%
14:00
18°
1000.3 hPa 29.6 mm 12.2°
10
0%
17:00
18°
1000.0 hPa 30.8 mm 10.8°
9
0%
20:00
16°
999.0 hPa 31.9 mm 11.8°
8
1%
23:00
15°
998.9 hPa 33.2 mm 12.1°
8
0%
 05:08     21:30    Daglengte: 16:22 Zaterdag 31 Jul
02:00
15°
998.8 hPa 34.1 mm 12.6°
9
1%
05:00
15°
998.7 hPa 34.7 mm 12.2°
8
1%
08:00
16°
999.4 hPa 35.3 mm 11.4°
7
1%
11:00
18°
1000.5 hPa 35.4 mm 9.7°
7
1%
14:00
19°
1000.4 hPa 35.5 mm 9.5°
6
1%
17:00
19°
1000.0 hPa 35.7 mm 9.7°
4
1%
20:00
16°
999.8 hPa 36.2 mm 12.7°
4
1%
23:00
14°
1000.4 hPa 36.8 mm 12.3°
4
1%
 05:11     21:28    Daglengte: 16:17 Zondag 01 Aug
02:00
15°
1000.8 hPa 36.8 mm 9.8°
5
1%
05:00
15°
1000.8 hPa   9.3°
6
1%
08:00
15°
1001.4 hPa 74.2 mm 10.0°
7
1%
14:00
16°
1003.8 hPa 76.7 mm 12.0°
8
1%
20:00
16°
1006.0 hPa 80.0 mm 10.6°
6
1%
 05:13     21:25    Daglengte: 16:12 Maandag 02 Aug
02:00
15°
1007.2 hPa 80.6 mm 9.5°
5
1%
08:00
16°
1007.6 hPa 81.1 mm 10.4°
3
0%
14:00
19°
1008.9 hPa 83.1 mm 7.7°
4
1%
20:00
17°
1009.6 hPa 83.3 mm 10.5°
1
1%
 05:15     21:23    Daglengte: 16:08 Dinsdag 03 Aug
02:00
12°
1011.4 hPa 83.3 mm 9.9°
1
1%
14:00
20°
1013.1 hPa 125.2 mm 9.5°
3
1%
20:00
17°
1013.4 hPa 85.2 mm 13.0°
1
1%
 05:17     21:21    Daglengte: 16:04 Woensdag 04 Aug
02:00
14°
1005.2 hPa 0.8 mm 11.3°
1
58%
08:00
15°
1005.5 hPa 0.1 mm 11.6°
1
63%
14:00
19°
1006.0 hPa 1.7 mm 12.3°
2
72%
20:00
17°
1006.5 hPa 1.7 mm 12.7°
2
60%
 05:19     21:19    Daglengte: 16:00 Donderdag 05 Aug
02:00
14°
1007.5 hPa 0.9 mm 11.9°
1
51%
08:00
16°
1007.9 hPa 0.7 mm 12.5°
2
51%
14:00
19°
1008.4 hPa 1.1 mm 12.4°
3
53%
20:00
17°
1008.6 hPa 0.7 mm 12.6°
2
43%
 05:21     21:16    Daglengte: 15:55 Vrijdag 06 Aug
02:00
15°
1009.2 hPa 0.3 mm 12.2°
2
50%
08:00
16°
1009.3 hPa 0.8 mm 12.7°
2
61%
14:00
19°
1009.3 hPa 1.1 mm 12.9°
4
62%
20:00
17°
1009.2 hPa 0.8 mm 13.1°
3
63%
 05:23     21:14    Daglengte: 15:51 Zaterdag 07 Aug
02:00
15°
1009.5 hPa 0.7 mm 12.9°
2
63%
08:00
16°
1009.1 hPa 1.1 mm 13.1°
2
70%
14:00
19°
1009.0 hPa 0.2 mm 12.9°
3
69%
20:00
18°
1008.6 hPa 0.1 mm 13.5°
2
61%
 05:25     21:12    Daglengte: 15:47 Zondag 08 Aug
02:00
15°
1008.6 hPa 1.3 mm 12.9°
1
76%
08:00
16°
1008.3 hPa 1.6 mm 13.2°
2
80%
14:00
19°
1008.4 hPa 2.1 mm 13.3°
3
77%
20:00
17°
1008.3 hPa 1.3 mm 13.6°
2
59%
 05:27     21:09    Daglengte: 15:42 Maandag 09 Aug
02:00
15°
1008.5 hPa 1.2 mm 13.4°
3
61%
08:00
16°
1008.5 hPa 2.0 mm 13.4°
3
69%
  CAPE Lifted Index Hail Supercell Tornado SRH 3km CL BTM PRES CL TOP PRES Swiss DWD icon SMHI TS
 04:57     21:42    Daglengte: 16:45 Vandaag
06:00 0 J/kg 3.7 K 0 % 0 % 0 % 0 m²/s² 0 0 7.9 1
07:00 0 J/kg 7.1 K 0 % 0 % 0 % 0 m²/s² 0 0 11.09 2
08:00 0 J/kg 6.6 K 0 % 0 % 0 % 0 m²/s² 0 0 10.5 3
09:00 0 J/kg 5.6 K 0 % 0 % 0 % 0 m²/s² 0 0 9.5 3
10:00 0 J/kg 5.1 K 0 % 0 % 0 % 0 m²/s² 0 0 9.09 3
11:00 0 J/kg 5.0 K 0 % 0 % 0 % 0 m²/s² 0 0 9.11 3
12:00 0 J/kg 4.8 K 0 % 0 % 0 % 0 m²/s² 0 0 9.03 3
13:00 0 J/kg 4.2 K 0 % 0 % 0 % 0 m²/s² 0 0 8.76 3
14:00 0 J/kg 3.8 K 0 % 0 % 0 % 0 m²/s² 0 0 8.48 3
15:00 0 J/kg 3.1 K 0 % 0 % 0 % 0 m²/s² 0 0 7.75 3
16:00 1 J/kg 2.5 K 0 % 0 % 0 % 0 m²/s² 0 0 7.18 3
17:00 0 J/kg 1.8 K 0 % 0 % 0 % 0 m²/s² 0 0 6.72 3
18:00 0 J/kg 2.1 K 0 % 0 % 0 % 0 m²/s² 0 0 7.71 3
19:00 1 J/kg 1.8 K 0 % 0 % 0 % 0 m²/s² 0 0 7.41 3
20:00 2 J/kg 1.6 K 0 % 0 % 0 % 0 m²/s² 0 0 6.79 2
21:00 9 J/kg 1.1 K 0 % 0 % 0 % 0 m²/s² 0 0 5.81 2
22:00 0 J/kg 1.6 K 0 % 0 % 0 % 0 m²/s² 0 0 6.16 3
23:00 0 J/kg 0.7 K 0 % 0 % 0 % 0 m²/s² 0 0 5.17 3
 04:59     21:40    Daglengte: 16:41 Morgen
00:00 0 J/kg 0.0 K 0 % 0 % 0 % 0 m²/s² 0 0 4.23 3
01:00 0 J/kg 1.4 K 0 % 0 % 0 % 0 m²/s² 0 0 5.96 3
02:00 0 J/kg 2.9 K 0 % 0 % 0 % 0 m²/s² 0 0 7.46 3
03:00 0 J/kg 2.0 K 0 % 0 % 0 % 0 m²/s² 0 0 6.44 3
04:00 0 J/kg 0.8 K 0 % 0 % 0 % 0 m²/s² 0 0 5.12 3
05:00 0 J/kg -0.1 K 0 % 0 % 0 % 0 m²/s² 0 0 3.05 3
06:00 0 J/kg -0.8 K 0 % 0 % 0 % 0 m²/s² 0 0 1.03 3
07:00 0 J/kg -0.6 K 0 % 0 % 0 % 0 m²/s² 0 0 1.62 3
08:00 0 J/kg -1.5 K 0 % 0 % 0 % 0 m²/s² 0 0 -0.18 3
09:00 0 J/kg -0.6 K 0 % 0 % 0 % 0 m²/s² 0 0 0.24 3
10:00 36 J/kg -1.1 K 0 % 0 % 0 % 0 m²/s² 0 0 0.01 3
11:00 709 J/kg -2.6 K 0 % 0 % 0 % 0 m²/s² 0 0 -0.23 3
12:00 869 J/kg -3.2 K 0 % 0 % 0 % 0 m²/s² 0 0 -0.59 3
13:00 982 J/kg -3.3 K 0 % 0 % 0 % 0 m²/s² 0 0 -2.46 3
14:00 750 J/kg -2.8 K 0 % 0 % 0 % 0 m²/s² 0 0 -2.17 80
15:00 610 J/kg -1.9 K 0 % 0 % 0 % 0 m²/s² 0 0 -1.69 3
16:00 178 J/kg -0.6 K 0 % 0 % 0 % 0 m²/s² 0 0 -0.03 80
17:00 111 J/kg -0.4 K 0 % 0 % 0 % 0 m²/s² 0 0 -0.1 3
18:00 90 J/kg -1.8 K 0 % 0 % 0 % 0 m²/s² 0 0 -1.32 3
19:00 286 J/kg -1.9 K 0 % 0 % 0 % 0 m²/s² 0 0 -0.94 80
20:00 770 J/kg -3.2 K 0 % 0 % 0 % 0 m²/s² 0 0 -2.3 61
21:00 928 J/kg -3.3 K 0 % 0 % 0 % 0 m²/s² 0 0 -1.62 3
22:00 942 J/kg -3.5 K 0 % 0 % 0 % 0 m²/s² 0 0 -1.76 3
23:00 1134 J/kg -4.2 K 0 % 0 % 0 % 0 m²/s² 0 0 -2.7 3
 05:00     21:38    Daglengte: 16:38 Dinsdag 27 Jul
00:00 1190 J/kg -4.8 K 0 % 0 % 0 % 0 m²/s² 0 0 -2.82 3
01:00 1180 J/kg -4.6 K 0 % 0 % 0 % 0 m²/s² 0 0 -2.14 3
02:00 1134 J/kg -4.7 K 0 % 0 % 0 % 0 m²/s² 0 0 -2.45 61
03:00 920 J/kg -4.0 K 0 % 0 % 0 % 0 m²/s² 0 0 -2.14 95
04:00 800 J/kg -3.9 K 0 % 0 % 0 % 0 m²/s² 0 0 -2.13 80
05:00 983 J/kg -4.4 K 0 % 0 % 0 % 0 m²/s² 0 0 -2.93 80
06:00 841 J/kg -4.4 K 0 % 0 % 0 % 0 m²/s² 0 0 -2.09 61
07:00 1052 J/kg -4.2 K 0 % 0 % 0 % 0 m²/s² 0 0 -2.1 61
08:00 1355 J/kg -4.9 K 0 % 0 % 0 % 0 m²/s² 0 0 -3.19 61
09:00 1412 J/kg -5.1 K 0 % 0 % 0 % 0 m²/s² 0 0 -3.15 61
10:00 1457 J/kg -5.4 K 0 % 0 % 0 % 0 m²/s² 0 0 -3.81 63
11:00 1218 J/kg -4.9 K 0 % 0 % 0 % 0 m²/s² 0 0 -3.58 95
12:00 778 J/kg -3.3 K 0 % 0 % 0 % 0 m²/s² 0 0 -0.93 81
13:00 363 J/kg -1.9 K 0 % 0 % 0 % 0 m²/s² 0 0 0.92 80
14:00 111 J/kg -0.7 K 0 % 0 % 0 % 0 m²/s² 0 0 2.12 3
15:00 77 J/kg -0.4 K 0 % 0 % 0 % 0 m²/s² 0 0 2.48 2
16:00 72 J/kg 0.0 K 0 % 0 % 0 % 0 m²/s² 0 0 2.43 2
17:00 161 J/kg -0.1 K 0 % 0 % 0 % 0 m²/s² 0 0 1.22 2
18:00 270 J/kg -0.3 K 0 % 0 % 0 % 0 m²/s² 0 0 1.02 2
19:00 486 J/kg -0.9 K 0 % 0 % 0 % 0 m²/s² 0 0 1.05 2
20:00 578 J/kg -1.3 K 0 % 0 % 0 % 0 m²/s² 0 0 1.61 2
21:00 628 J/kg -1.6 K 0 % 0 % 0 % 0 m²/s² 0 0 -0.25 2
22:00 664 J/kg -2.1 K 0 % 0 % 0 % 0 m²/s² 0 0 -0.51 80
23:00 762 J/kg -2.6 K 0 % 0 % 0 % 0 m²/s² 0 0 -0.95 80
 05:02     21:36    Daglengte: 16:34 Woensdag 28 Jul
00:00 750 J/kg -2.5 K 0 % 0 % 0 % 0 m²/s² 0 0 0.08 80
01:00 864 J/kg -2.9 K 0 % 0 % 0 % 0 m²/s² 0 0 -0.17 80
02:00 868 J/kg -3.1 K 0 % 0 % 0 % 0 m²/s² 0 0 0.29 2
Temp Baro Wind Neerslag
  EWN Forecast EWN WRFDA DWD ICON FMI HIRLAM MET Norway GFS
 04:57     21:42    Daglengte: 16:45 Vandaag
08:00 19.0° 1015.3 hPa 3.4 m/s 0.0 mm 18.0° 1014.8 hPa 3.8 m/s 0.0 mm 19.1° 1015.3 hPa 3.2 m/s -2.0 mm 18.4° 1015.5 hPa 4.7 m/s 0.0 mm 19.1° 1015.3 hPa 4.2 m/s
11:00 23.2° 1015.2 hPa 4.5 m/s 0.0 mm 22.9° 1014.3 hPa 5.2 m/s 0.0 mm 22.4° 1015.2 hPa 3.6 m/s 0.0 mm 23.3° 1015.2 hPa 5.2 m/s 0.0 mm 23.8° 1015.1 hPa 3.7 m/s
14:00 26.3° 1014.7 hPa 3.6 m/s 0.0 mm 25.6° 1013.9 hPa 4.3 m/s 0.0 mm 25.5° 1014.6 hPa 2.8 m/s 0.0 mm 26.9° 1014.9 hPa 4.2 m/s 0.0 mm 26.6° 1014.3 hPa 2.2 m/s
17:00 26.9° 1014.0 hPa 3.2 m/s 0.0 mm 27.0° 1013.0 hPa 3.6 m/s 0.0 mm 25.8° 1014.2 hPa 2.7 m/s 0.0 mm 27.3° 1014.0 hPa 3.3 m/s 0.0 mm 26.3° 1013.5 hPa 1.3 m/s
20:00 25.7° 1013.5 hPa 3.1 m/s 0.0 mm 26.1° 1012.0 hPa 3.6 m/s 0.0 mm 25.2° 1013.6 hPa 2.6 m/s 0.0 mm 26.1° 1013.6 hPa 3.5 m/s 0.0 mm 21.4° 1013.9 hPa 1.7 m/s
23:00 21.5° 1014.6 hPa 2.8 m/s 0.0 mm 22.1° 1013.2 hPa 4.7 m/s 0.0 mm 21.2° 1014.6 hPa 1.6 m/s 0.0 mm 21.1° 1014.8 hPa 2.9 m/s 0.0 mm 20.1° 1014.3 hPa 1.7 m/s
 04:59     21:40    Daglengte: 16:41 Morgen
02:00 19.9° 1014.5 hPa 3.6 m/s 0.0 mm 19.0° 1013.0 hPa 4.1 m/s 0.0 mm 20.0° 1014.7 hPa 2.5 m/s 0.0 mm 19.2° 1014.9 hPa 4.2 m/s 0.0 mm 18.1° 1014.3 hPa 3.2 m/s
05:00 18.2° 1014.0 hPa 4.2 m/s 0.0 mm 19.2° 1012.2 hPa 5.0 m/s 0.0 mm 17.9° 1014.2 hPa 3.0 m/s 0.0 mm 17.7° 1014.2 hPa 4.2 m/s 0.0 mm 17.0° 1013.7 hPa 4.1 m/s
08:00 20.4° 1013.6 hPa 4.5 m/s 0.0 mm 20.3° 1011.6 hPa 3.3 m/s 1.3 mm 19.9° 1014.0 hPa 3.8 m/s 0.0 mm 20.2° 1013.4 hPa 4.7 m/s 0.0 mm 20.1° 1013.2 hPa 4.4 m/s
11:00 24.3° 1013.3 hPa 4.2 m/s 0.0 mm 25.0° 1010.7 hPa 4.2 m/s 3.4 mm 24.4° 1013.6 hPa 2.8 m/s 0.0 mm 22.0° 1013.3 hPa 4.4 m/s 0.0 mm 20.4° 1013.8 hPa 4.2 m/s
14:00 27.9° 1012.0 hPa 3.2 m/s 0.7 mm 25.8° 1009.4 hPa 5.3 m/s 6.2 mm 25.2° 1012.3 hPa 0.9 m/s 0.3 mm 29.2° 1011.8 hPa 4.7 m/s 0.0 mm 24.4° 1013.0 hPa 3.5 m/s
17:00 24.6° 1011.4 hPa 4.0 m/s 1.2 mm 21.4° 1009.0 hPa 5.8 m/s 11.3 mm 24.5° 1011.5 hPa 2.7 m/s 0.9 mm 27.2° 1011.4 hPa 4.7 m/s 0.0 mm 21.0° 1011.7 hPa 0.9 m/s
20:00 23.8° 1010.5 hPa 3.2 m/s 0.0 mm 21.6° 1007.5 hPa 2.3 m/s 12.9 mm 22.8° 1010.5 hPa 1.4 m/s 0.6 mm 25.3° 1010.6 hPa 3.7 m/s 0.0 mm 21.5° 1011.8 hPa 2.6 m/s
23:00 21.7° 1010.1 hPa 1.6 m/s 0.0 mm 19.9° 1007.3 hPa 1.2 m/s 13.5 mm 21.9° 1010.1 hPa 0.9 m/s 0.0 mm 17.5° 1012.3 hPa 3.5 m/s
 05:00     21:38    Daglengte: 16:38 Dinsdag 27 Jul
02:00 20.4° 1009.7 hPa 2.0 m/s 3.5 mm 19.1° 1006.2 hPa 1.9 m/s 13.7 mm 20.5° 1010.0 hPa 1.1 m/s 0.2 mm 17.8° 1011.8 hPa 2.8 m/s
05:00 19.1° 1009.0 hPa 2.5 m/s 6.8 mm 17.9° 1006.1 hPa 2.6 m/s 13.7 mm 19.0° 1009.2 hPa 1.8 m/s 3.4 mm 16.9° 1010.8 hPa 2.6 m/s
08:00 20.3° 1008.1 hPa 3.7 m/s 5.4 mm 21.1° 1005.1 hPa 4.3 m/s 13.9 mm 19.4° 1008.3 hPa 2.3 m/s 1.2 mm 17.1° 1009.8 hPa 2.8 m/s
11:00 19.5° 1006.7 hPa 1.9 m/s 15.6 mm 21.1° 1006.1 hPa 6.0 m/s 14.9 mm 19.1° 1006.9 hPa 0.9 m/s 15.9 mm 19.8° 1009.5 hPa 1.3 m/s
14:00 20.9° 1007.1 hPa 5.0 m/s 7.1 mm 20.7° 1007.5 hPa 6.9 m/s 16.8 mm 21.0° 1007.0 hPa 4.5 m/s 2.3 mm 23.5° 1008.9 hPa 3.9 m/s
17:00 21.3° 1007.4 hPa 4.8 m/s 2.0 mm 21.8° 1007.7 hPa 5.8 m/s 16.8 mm 21.1° 1007.3 hPa 4.5 m/s 0.3 mm 22.8° 1009.1 hPa 4.4 m/s
20:00 20.2° 1007.2 hPa 4.0 m/s 0.0 mm 20.9° 1006.6 hPa 4.4 m/s 16.8 mm 20.0° 1007.4 hPa 3.9 m/s 0.1 mm 20.7° 1008.6 hPa 3.0 m/s
23:00 18.5° 1008.4 hPa 3.1 m/s 4.1 mm 18.9° 1007.6 hPa 2.2 m/s 16.9 mm 18.4° 1008.6 hPa 3.3 m/s 0.6 mm 17.7° 1009.0 hPa 1.8 m/s
 05:02     21:36    Daglengte: 16:34 Woensdag 28 Jul
02:00 18.1° 1008.7 hPa 2.3 m/s 6.1 mm 17.3° 1007.1 hPa 2.0 m/s 16.9 mm 18.3° 1009.1 hPa 2.4 m/s 0.7 mm 17.2° 1008.7 hPa 2.2 m/s
05:00 16.3° 1007.9 hPa 1.3 m/s 15.1 mm 16.3° 1007.9 hPa 1.3 m/s 15.1 mm
08:00 18.9° 1007.8 hPa 2.2 m/s 15.1 mm 18.9° 1007.8 hPa 2.2 m/s 15.1 mm
11:00 21.3° 1007.1 hPa 3.2 m/s 15.1 mm 21.3° 1007.1 hPa 3.2 m/s 15.1 mm
14:00 20.3° 1006.6 hPa 3.2 m/s 15.4 mm 20.3° 1006.6 hPa 3.2 m/s 15.4 mm
17:00 20.6° 1006.0 hPa 4.6 m/s 16.6 mm 20.6° 1006.0 hPa 4.6 m/s 16.6 mm
20:00 18.5° 1005.8 hPa 4.1 m/s 17.9 mm 18.5° 1005.8 hPa 4.1 m/s 17.9 mm
23:00 16.5° 1005.9 hPa 4.4 m/s 18.8 mm 16.5° 1005.9 hPa 4.4 m/s 18.8 mm
 05:04     21:34    Daglengte: 16:30 Donderdag 29 Jul
02:00 16.2° 1006.2 hPa 6.2 m/s 19.0 mm 16.2° 1006.2 hPa 6.2 m/s 19.0 mm
05:00 16.2° 1006.4 hPa 6.2 m/s 19.2 mm 16.2° 1006.4 hPa 6.2 m/s 19.2 mm
08:00 16.9° 1006.8 hPa 5.7 m/s 19.2 mm 16.9° 1006.8 hPa 5.7 m/s 19.2 mm
11:00 18.6° 1007.2 hPa 6.0 m/s 19.2 mm 18.6° 1007.2 hPa 6.0 m/s 19.2 mm
14:00 20.1° 1006.5 hPa 5.4 m/s 19.3 mm 20.1° 1006.5 hPa 5.4 m/s 19.3 mm
17:00 20.6° 1005.4 hPa 5.6 m/s 19.9 mm 20.6° 1005.4 hPa 5.6 m/s 19.9 mm
20:00 19.3° 1004.0 hPa 4.2 m/s 20.1 mm 19.3° 1004.0 hPa 4.2 m/s 20.1 mm
23:00 17.5° 1003.0 hPa 4.8 m/s 20.4 mm 17.5° 1003.0 hPa 4.8 m/s 20.4 mm
 05:06     21:32    Daglengte: 16:26 Vrijdag 30 Jul
02:00 15.7° 1000.9 hPa 4.6 m/s 23.2 mm 15.7° 1000.9 hPa 4.6 m/s 23.2 mm
05:00 15.7° 999.4 hPa 8.4 m/s 26.8 mm 15.7° 999.4 hPa 8.4 m/s 26.8 mm
08:00 15.9° 1000.2 hPa 8.6 m/s 27.0 mm 15.9° 1000.2 hPa 8.6 m/s 27.0 mm
11:00 17.3° 1000.0 hPa 8.5 m/s 27.8 mm 17.3° 1000.0 hPa 8.5 m/s 27.8 mm
14:00 17.6° 1000.3 hPa 9.5 m/s 29.6 mm 17.6° 1000.3 hPa 9.5 m/s 29.6 mm
17:00 18.1° 1000.0 hPa 8.9 m/s 30.8 mm 18.1° 1000.0 hPa 8.9 m/s 30.8 mm
20:00 16.2° 999.0 hPa 7.8 m/s 31.9 mm 16.2° 999.0 hPa 7.8 m/s 31.9 mm
23:00 14.6° 998.9 hPa 8.3 m/s 33.2 mm 14.6° 998.9 hPa 8.3 m/s 33.2 mm
 05:08     21:30    Daglengte: 16:22 Zaterdag 31 Jul
02:00 14.9° 998.8 hPa 9.1 m/s 34.1 mm 14.9° 998.8 hPa 9.1 m/s 34.1 mm
05:00 15.2° 998.7 hPa 8.0 m/s 34.7 mm 15.2° 998.7 hPa 8.0 m/s 34.7 mm
08:00 15.6° 999.4 hPa 7.3 m/s 35.3 mm 15.6° 999.4 hPa 7.3 m/s 35.3 mm
11:00 18.0° 1000.5 hPa 6.8 m/s 35.4 mm 18.0° 1000.5 hPa 6.8 m/s 35.4 mm
14:00 19.3° 1000.4 hPa 5.7 m/s 35.5 mm 19.3° 1000.4 hPa 5.7 m/s 35.5 mm
17:00 19.2° 1000.0 hPa 4.3 m/s 35.7 mm 19.2° 1000.0 hPa 4.3 m/s 35.7 mm
20:00 16.3° 999.8 hPa 4.1 m/s 36.2 mm 16.3° 999.8 hPa 4.1 m/s 36.2 mm
23:00 14.2° 1000.4 hPa 4.3 m/s 36.8 mm 14.2° 1000.4 hPa 4.3 m/s 36.8 mm
 05:11     21:28    Daglengte: 16:17 Zondag 01 Aug
02:00 14.6° 1000.8 hPa 5.4 m/s 36.8 mm 14.6° 1000.8 hPa 5.4 m/s 36.8 mm
05:00 14.9° 1000.8 hPa 5.7 m/s 36.9 mm 14.9° 1000.8 hPa 5.7 m/s 36.9 mm
08:00 15.4° 1001.4 hPa 6.9 m/s 37.2 mm 15.4° 1001.4 hPa 6.9 m/s 37.2 mm
14:00 15.6° 1003.8 hPa 8.3 m/s 39.0 mm 15.6° 1003.8 hPa 8.3 m/s 39.0 mm
20:00 15.8° 1006.0 hPa 6.3 m/s 40.2 mm 15.8° 1006.0 hPa 6.3 m/s 40.2 mm
 05:13     21:25    Daglengte: 16:12 Maandag 02 Aug
02:00 14.6° 1007.2 hPa 4.8 m/s 40.3 mm 14.6° 1007.2 hPa 4.8 m/s 40.3 mm
08:00 15.5° 1007.6 hPa 3.3 m/s 40.7 mm 15.5° 1007.6 hPa 3.3 m/s 40.7 mm
14:00 18.6° 1008.9 hPa 3.7 m/s 41.6 mm 18.6° 1008.9 hPa 3.7 m/s 41.6 mm
20:00 16.9° 1009.6 hPa 1.0 m/s 41.6 mm 16.9° 1009.6 hPa 1.0 m/s 41.6 mm
 05:15     21:23    Daglengte: 16:08 Dinsdag 03 Aug
02:00 12.0° 1011.4 hPa 0.9 m/s 41.6 mm 12.0° 1011.4 hPa 0.9 m/s 41.6 mm
14:00 20.3° 1013.1 hPa 3.2 m/s 41.9 mm 20.3° 1013.1 hPa 3.2 m/s 41.9 mm
20:00 17.4° 1013.4 hPa 1.0 m/s 42.7 mm 17.4° 1013.4 hPa 1.0 m/s 42.7 mm
 05:17     21:21    Daglengte: 16:04 Woensdag 04 Aug
02:00 14.2° 1005.2 hPa 1.1 m/s 0.8 mm
08:00 15.4° 1005.5 hPa 0.8 m/s 0.1 mm
14:00 18.7° 1006.0 hPa 2.4 m/s 1.7 mm
20:00 17.3° 1006.5 hPa 1.7 m/s 1.7 mm
 05:19     21:19    Daglengte: 16:00 Donderdag 05 Aug
02:00 14.4° 1007.5 hPa 1.2 m/s 0.9 mm
08:00 15.7° 1007.9 hPa 1.7 m/s 0.7 mm
14:00 18.8° 1008.4 hPa 3.2 m/s 1.1 mm
20:00 17.5° 1008.6 hPa 2.0 m/s 0.7 mm
 05:21     21:16    Daglengte: 15:55 Vrijdag 06 Aug
02:00 14.7° 1009.2 hPa 1.6 m/s 0.3 mm
08:00 16.0° 1009.3 hPa 2.1 m/s 0.8 mm
14:00 19.1° 1009.3 hPa 4.0 m/s 1.1 mm
20:00 17.5° 1009.2 hPa 2.8 m/s 0.8 mm
 05:23     21:14    Daglengte: 15:51 Zaterdag 07 Aug
02:00 15.2° 1009.5 hPa 2.4 m/s 0.7 mm
08:00 16.0° 1009.1 hPa 1.7 m/s 1.1 mm
14:00 18.9° 1009.0 hPa 2.9 m/s 0.2 mm
20:00 17.6° 1008.6 hPa 1.8 m/s 0.1 mm
 05:25     21:12    Daglengte: 15:47 Zondag 08 Aug
02:00 15.2° 1008.6 hPa 1.4 m/s 1.3 mm
08:00 16.3° 1008.3 hPa 1.8 m/s 1.6 mm
14:00 18.8° 1008.4 hPa 3.2 m/s 2.1 mm
20:00 17.4° 1008.3 hPa 2.0 m/s 1.3 mm
 05:27     21:09    Daglengte: 15:42 Maandag 09 Aug
02:00 15.4° 1008.5 hPa 2.8 m/s 1.2 mm
08:00 16.1° 1008.5 hPa 3.0 m/s 2.0 mm
FMI Hirlam - 7.5 km EWN WRFDA - 12 km DWD ICON - 7 km GFS - 25 km Basiskaart






























































Updatetijd (Europe/Amsterdam) Resolutie Lengte Stap
FMI Hirlam 02:00, 08:00, 14:00, 20:00 7.5 km 49h 1h
EWN WRFDA 05:30, 11:30, 17:30, 23:30 12 km 73h 1h
DWD ICON 23:45, 05:45, 11:45, 17:45 7 km 75h 1h
GFS 02:15, 08:15, 14:15, 20:15 25 km 237h 3h
30+ mm
25-30 mm
20-25 mm
15-20 mm
10-15 mm
6-10 mm
4-6 mm
2-4 mm
1-2 mm
0.5-1 mm
0.2-0.5 mm
0.1-0.2 mm
30+ mm
25-30 mm
20-25 mm
15-20 mm
10-15 mm
6-10 mm
4-6 mm
2-4 mm
1-2 mm
0.5-1 mm
0.2-0.5 mm
0.1-0.2 mm
Sneeuwval
Natte sneeuw
Hagel
Vorst
30+ mm
25-30 mm
20-25 mm
15-20 mm
10-15 mm
6-10 mm
4-6 mm
2-4 mm
1-2 mm
0.5-1 mm
0.2-0.5 mm
0.1-0.2 mm
Sneeuwval
Natte sneeuw
Hagel
Vorst
Onweer
50 mm
40 mm
30 mm
26 mm
22 mm
18 mm
14 mm
10 mm
9 mm
8 mm
7 mm
6 mm
5 mm
4.5 mm
4 mm
3.5 mm
3 mm
2.5 mm
2 mm
1.5 mm
1 mm
0.8 mm
0.6 mm
0.4 mm
0.2 mm
0.05 mm
35°
30°
25°
20°